Location: Newark
(33.6439°N, 114.9881°W)
Time: 01:47:07
(UTC+00:00)

Tiangong 2 - Visible Passes

Search period start: 22 March 2019 00:00
Search period end: 01 April 2019 00:00
Orbit: 379 x 390 km, 42.8° (Epoch: 21 March)

Date Brightness Start Highest point End Pass type
(mag) Time Alt. Az. Time Alt. Az. Time Alt. Az.
22 Mar 1.8 12:24:08 27° NW 12:25:34 51° NNE 12:28:40 10° ESE visible
23 Mar 4.0 11:27:47 18° ENE 11:27:47 18° ENE 11:28:51 10° E visible
23 Mar 1.7 13:00:02 12° WNW 13:02:46 38° SW 13:05:44 10° SE visible
24 Mar 1.4 12:03:51 58° SE 12:03:51 58° SE 12:06:29 10° ESE visible
25 Mar 2.7 12:40:06 19° SW 12:40:21 19° SW 12:42:41 10° S visible
28 Mar 3.3 03:11:14 10° S 03:12:05 14° S 03:12:05 14° S visible
29 Mar 3.2 03:47:25 10° WSW 03:48:39 22° WSW 03:48:39 22° WSW visible
30 Mar 1.6 02:48:07 10° SW 02:51:04 39° SE 02:52:45 20° E visible
31 Mar 1.8 03:25:09 10° WSW 03:28:12 50° NNW 03:28:55 39° NNE visible
